• In Hungary
  • List of Countries
  • For 7 days
  • Water Temperature
  • Satellite Maps
  • Weather Map
  • News
  • Weather Widgets
  • user-avatar
    Login

    Hourly Weather Omagh

    Today, 24 November, Friday

    Time Temperature Precipitation Wind Pressure Humidity
    00:00 +1°C° 0 mm 2 mps 747 mmHg 85%
    01:00 +1°C° 0 mm 2 mps 747 mmHg 85%
    02:00 +1°C° 0 mm 2 mps 747 mmHg 85%
    03:00 +1°C° 0 mm 2 mps 748 mmHg 85%
    04:00 +1°C° 0.1 mm 2 mps 748 mmHg 86%
    05:00 +1°C° 0.1 mm 2 mps 748 mmHg 86%
    06:00 +2°C° 0 mm 1 mps 749 mmHg 87%
    07:00 +1°C° 0.1 mm 2 mps 749 mmHg 87%
    08:00 +2°C° 0.1 mm 2 mps 749 mmHg 86%
    09:00 +2°C° 0.1 mm 2 mps 749 mmHg 86%
    10:00 +3°C° 0 mm 2 mps 750 mmHg 82%
    11:00 +3°C° 0 mm 3 mps 750 mmHg 77%
    12:00 +4°C° 0 mm 3 mps 750 mmHg 73%
    13:00 +3°C° 0 mm 3 mps 750 mmHg 73%
    14:00 +3°C° 0 mm 3 mps 750 mmHg 72%
    15:00 +3°C° 0 mm 3 mps 750 mmHg 72%
    16:00 +2°C° 0.1 mm 3 mps 750 mmHg 74%
    17:00 +1°C° 0.1 mm 3 mps 750 mmHg 76%
    18:00 +1°C° 0.1 mm 3 mps 751 mmHg 78%
    19:00 +1°C° 0.1 mm 3 mps 751 mmHg 78%
    20:00 +1°C° 0.1 mm 3 mps 752 mmHg 79%
    21:00 +1°C° 0.1 mm 3 mps 752 mmHg 79%
    22:00 +1°C° 0.2 mm 3 mps 752 mmHg 80%
    23:00 +1°C° 0.2 mm 3 mps 752 mmHg 81%

    Tomorrow, 25 November, Saturday

    Time Temperature Precipitation Wind Pressure Humidity
    00:00 +1°C° 0.2 mm 3 mps 753 mmHg 81%
    01:00 +1°C° 0.2 mm 3 mps 753 mmHg 81%
    02:00 +1°C° 0.2 mm 3 mps 753 mmHg 81%
    03:00 0°C° 0.2 mm 4 mps 754 mmHg 81%
    04:00 0°C° 0.1 mm 4 mps 754 mmHg 80%
    05:00 0°C° 0.1 mm 4 mps 755 mmHg 80%
    06:00 0°C° 0.1 mm 4 mps 755 mmHg 79%
    07:00 0°C° 0.1 mm 4 mps 755 mmHg 79%
    08:00 0°C° 0.1 mm 4 mps 756 mmHg 78%
    09:00 0°C° 0.1 mm 4 mps 757 mmHg 78%
    10:00 0°C° 0.1 mm 5 mps 757 mmHg 76%
    11:00 +1°C° 0.1 mm 5 mps 757 mmHg 73%
    12:00 +2°C° 0.1 mm 6 mps 758 mmHg 70%
    13:00 +2°C° 0.1 mm 5 mps 758 mmHg 72%
    14:00 +2°C° 0.1 mm 5 mps 758 mmHg 73%
    15:00 +1°C° 0.1 mm 5 mps 758 mmHg 74%
    16:00 +1°C° 0.1 mm 5 mps 758 mmHg 76%
    17:00 +1°C° 0.1 mm 4 mps 759 mmHg 77%
    18:00 0°C° 0.1 mm 4 mps 759 mmHg 79%
    19:00 0°C° 0.1 mm 4 mps 759 mmHg 79%
    20:00 +1°C° 0.1 mm 5 mps 760 mmHg 78%
    21:00 +1°C° 0.1 mm 5 mps 760 mmHg 78%
    22:00 0°C° 0.1 mm 4 mps 760 mmHg 79%
    23:00 0°C° 0.1 mm 4 mps 761 mmHg 80%

    Day after tomorrow, 26 November, Sunday

    Time Temperature Precipitation Wind Pressure Humidity
    00:00 0°C° 0.1 mm 4 mps 761 mmHg 81%
    01:00 0°C° 0.1 mm 4 mps 761 mmHg 81%
    02:00 +1°C° 0.1 mm 4 mps 761 mmHg 81%
    03:00 +1°C° 0.1 mm 4 mps 762 mmHg 81%
    04:00 +2°C° 0 mm 3 mps 762 mmHg 83%
    05:00 +1°C° 0 mm 3 mps 762 mmHg 85%
    06:00 +1°C° 0 mm 3 mps 762 mmHg 87%
    07:00 +1°C° 0 mm 3 mps 762 mmHg 87%
    08:00 +3°C° 0 mm 2 mps 762 mmHg 87%
    09:00 +3°C° 0 mm 2 mps 763 mmHg 87%
    10:00 +4°C° 0 mm 2 mps 762 mmHg 86%
    11:00 +3°C° 0 mm 3 mps 762 mmHg 85%
    12:00 +4°C° 0 mm 3 mps 762 mmHg 84%
    13:00 +4°C° 0.5 mm 3 mps 762 mmHg 86%
    14:00 +4°C° 0.5 mm 3 mps 761 mmHg 89%
    15:00 +4°C° 0.5 mm 3 mps 761 mmHg 92%
    16:00 +5°C° 0.9 mm 4 mps 760 mmHg 92%
    17:00 +5°C° 0.9 mm 5 mps 760 mmHg 92%
    18:00 +5°C° 0.9 mm 6 mps 759 mmHg 91%
    19:00 +5°C° 0.2 mm 6 mps 759 mmHg 91%
    20:00 +5°C° 0.2 mm 6 mps 758 mmHg 91%
    21:00 +7°C° 0.2 mm 6 mps 758 mmHg 91%
    22:00 +7°C° 0.6 mm 6 mps 757 mmHg 91%
    23:00 +7°C° 0.6 mm 6 mps 757 mmHg 92%

    27 November, Monday

    Time Temperature Precipitation Wind Pressure Humidity
    00:00 +8°C° 0.6 mm 6 mps 756 mmHg 92%
    01:00 +7°C° 0.2 mm 6 mps 756 mmHg 90%
    02:00 +6°C° 0.2 mm 5 mps 756 mmHg 89%
    03:00 +6°C° 0.2 mm 4 mps 756 mmHg 87%
    04:00 +5°C° 0 mm 4 mps 756 mmHg 87%
    05:00 +5°C° 0 mm 4 mps 757 mmHg 86%
    06:00 +4°C° 0 mm 4 mps 757 mmHg 86%
    07:00 +4°C° 0.1 mm 4 mps 757 mmHg 86%
    08:00 +4°C° 0.1 mm 4 mps 757 mmHg 86%
    09:00 +4°C° 0.1 mm 4 mps 757 mmHg 87%
    10:00 +4°C° 0 mm 4 mps 757 mmHg 85%
    11:00 +5°C° 0 mm 4 mps 757 mmHg 83%
    12:00 +5°C° 0 mm 4 mps 757 mmHg 81%
    13:00 +5°C° 0.1 mm 4 mps 756 mmHg 83%
    14:00 +5°C° 0.1 mm 4 mps 755 mmHg 85%
    15:00 +5°C° 0.1 mm 4 mps 754 mmHg 86%
    16:00 +5°C° 1.2 mm 5 mps 753 mmHg 88%
    17:00 +5°C° 1.2 mm 5 mps 752 mmHg 89%
    18:00 +4°C° 1.2 mm 6 mps 751 mmHg 91%
    19:00 +5°C° 1.3 mm 5 mps 750 mmHg 92%
    20:00 +5°C° 1.3 mm 5 mps 749 mmHg 92%
    21:00 +5°C° 1.3 mm 4 mps 748 mmHg 93%
    22:00 +5°C° 0.7 mm 4 mps 747 mmHg 92%
    23:00 +5°C° 0.7 mm 4 mps 747 mmHg 92%

    28 November, Tuesday

    Time Temperature Precipitation Wind Pressure Humidity
    00:00 +5°C° 0.7 mm 4 mps 747 mmHg 91%
    01:00 +5°C° 0.1 mm 4 mps 748 mmHg 88%
    02:00 +3°C° 0.1 mm 5 mps 749 mmHg 86%
    03:00 +2°C° 0.1 mm 5 mps 749 mmHg 83%
    04:00 +2°C° 0.1 mm 5 mps 750 mmHg 82%
    05:00 +2°C° 0.1 mm 5 mps 751 mmHg 81%
    06:00 +2°C° 0.1 mm 5 mps 752 mmHg 81%
    07:00 +2°C° 0.1 mm 5 mps 753 mmHg 80%
    08:00 +2°C° 0.1 mm 5 mps 753 mmHg 80%
    09:00 +2°C° 0.1 mm 5 mps 754 mmHg 80%
    10:00 +2°C° 0.1 mm 5 mps 754 mmHg 77%
    11:00 +3°C° 0.1 mm 6 mps 755 mmHg 75%
    12:00 +4°C° 0.1 mm 6 mps 755 mmHg 72%
    13:00 +3°C° 0 mm 6 mps 755 mmHg 73%
    14:00 +3°C° 0 mm 5 mps 756 mmHg 74%
    15:00 +3°C° 0 mm 5 mps 756 mmHg 75%
    16:00 +3°C° 0 mm 5 mps 756 mmHg 77%
    17:00 +2°C° 0 mm 5 mps 757 mmHg 78%
    18:00 +2°C° 0 mm 5 mps 757 mmHg 80%
    19:00 +3°C° 0 mm 4 mps 757 mmHg 80%
    20:00 +3°C° 0 mm 4 mps 758 mmHg 81%
    21:00 +1°C° 0 mm 4 mps 758 mmHg 81%
    22:00 +1°C° 0 mm 4 mps 758 mmHg 82%
    23:00 +1°C° 0 mm 4 mps 758 mmHg 83%

    29 November, Wednesday

    Time Temperature Precipitation Wind Pressure Humidity
    00:00 +2°C° 0 mm 3 mps 759 mmHg 84%
    01:00 +2°C° 0.1 mm 3 mps 759 mmHg 83%
    02:00 +2°C° 0.1 mm 3 mps 759 mmHg 83%
    03:00 +2°C° 0.1 mm 3 mps 759 mmHg 83%
    04:00 +2°C° 0.1 mm 3 mps 759 mmHg 83%
    05:00 +2°C° 0.1 mm 3 mps 759 mmHg 83%
    06:00 +2°C° 0.1 mm 3 mps 759 mmHg 83%
    07:00 +2°C° 0.1 mm 3 mps 759 mmHg 83%
    08:00 +2°C° 0.1 mm 3 mps 759 mmHg 83%
    09:00 +2°C° 0.1 mm 3 mps 760 mmHg 83%
    10:00 +3°C° 0.1 mm 3 mps 760 mmHg 81%
    11:00 +3°C° 0.1 mm 4 mps 760 mmHg 78%
    12:00 +4°C° 0.1 mm 4 mps 760 mmHg 76%
    13:00 +4°C° 0.1 mm 4 mps 760 mmHg 76%
    14:00 +3°C° 0.1 mm 3 mps 760 mmHg 77%
    15:00 +3°C° 0.1 mm 3 mps 759 mmHg 78%
    16:00 +3°C° 0.1 mm 3 mps 760 mmHg 79%
    17:00 +3°C° 0.1 mm 2 mps 760 mmHg 80%
    18:00 +3°C° 0.1 mm 2 mps 760 mmHg 81%
    19:00 +2°C° 0 mm 2 mps 760 mmHg 83%
    20:00 +2°C° 0 mm 2 mps 760 mmHg 84%
    21:00 +1°C° 0 mm 2 mps 760 mmHg 85%
    22:00 +2°C° 0.1 mm 2 mps 760 mmHg 85%
    23:00 +2°C° 0.1 mm 2 mps 760 mmHg 84%
    Show more